Terminal Aerodrome Forecast
Issued by NWS Cleveland, OH

Home | Current Version | Previous Version | Text Only | Print | Product List | Glossary Off
Versions: 1 2 3 4 5 6 7 8 9 10 11 12 13 14 15 16 17 18

248
FTUS41 KCLE 191946 AAA
TAFYNG
TAF AMD
KYNG 191946Z 1920/2018 33010KT P6SM VCTS BKN040CB BKN250
      TEMPO 1920/1921 -TSRA BKN030CB
     FM192100 01008KT P6SM BKN035
     FM200300 05006KT P6SM -SHRA BKN035 OVC100
     FM200900 07006KT 5SM BR BKN025
     FM201400 08008KT P6SM BKN025=

USA.gov is the U.S. government's official web portal to all federal, state and local government web resources and services.